User: anonymous   Login
Location: Unspecified
(0.0000°N, 0.0000°E)
Time: 18:26:22
(UTC+00:00)
Language:

DMSP B5D2-4 - Orbit

View from above orbital plane
View from above orbital plane
View from above satellite
View from above satellite

Ground track
Ground track

The orbit data is extracted from the following two-line orbital elements,

1 18822U 88006A   21136.64780143  .00000020  00000-0  25270-4 0  9991
2 18822  98.4172 359.1631 0007020 139.5871 220.5833 14.27324281731216
Epoch (UTC): 16 May 2021 15:32:50
Eccentricity: 0.0007020
inclination: 98.4172°
perigee height: 795 km
apogee height: 806 km
right ascension of ascending node: 359.1631°
argument of perigee: 139.5871°
revolutions per day: 14.27324281
mean anomaly at epoch: 220.5833°
orbit number at epoch: 73121

The dashed part of the orbit path shows where the satellite is in the earth's shadow,  

DLR